Probability
0 0 0 0 0 0 0 0 0 0 0 0 0 0 0 0 0 0 0 0 0 0 0 0 0 0 0 0 0 0 0 0 0 0 0 0 0 0 0 0 0 0 0
0 0 0 0 0 0 0 0 0 0 0 0 0 0 0 0 0 0 0 0 0 0 0 0 0 0 0 0 0 0 0 0 0 0 0 0 0 0 0 0 0 0 0
0 0 0 0 0 0 0 0 0 0 0 0 0 0 0 0 0 0 0 0 0 0 0 0 0 0 0 0 0 0 0 0 0 0 0 0 0 0 0 0 0 0 0
0 0 0 0 0 0 0 0 0 0 0 0 0 0 0 0 0 0 0 0 0 0 0 0 0 0 0 0 0 0 0 0 0 0 0 0 0 0 0 0 0 0 0
0 0 0 0 0 0 0 0 0 0 0 0 0 0 0 0 0 0 0 0 0 0 0 0 0 0 0 0 0 0 0 0 0 0 0 0 0 0 0 0 0 0 0
0 0 1 1 0 0 0 0 0 0 0 0 0 0 0 0 0 0 0 0 0 0 0 0 0 0 0 0 0 0 0 0 0 0 0 0 0 0 0 0 0 0 0
1 2 2 3 2 1 1 1 1 0 0 0 0 0 0 0 0 0 0 0 0 0 0 0 0 0 0 0 0 0 0 0 0 0 0 0 0 0 0 0 0 0 0
3 3 3 4 4 3 2 2 2 1 0 0 0 0 0 0 0 0 0 0 0 0 0 0 0 0 0 0 0 0 0 0 0 0 0 0 0 0 0 0 0 0 0
4 3 4 5 6 5 4 4 3 3 2 1 0 0 0 0 0 0 0 0 0 0 0 0 0 0 0 0 0 0 0 0 0 0 0 0 0 0 0 0 0 0 0
4 5 6 7 7 7 7 6 5 6 7 5 2 1 1 0 0 0 0 0 0 0 0 0 0 0 0 0 0 0 0 0 0 0 0 0 0 0 0 0 0 0 0
5 6 8 9 9 9 10 10 9 9 9 8 5 3 2 0 0 0 0 0 0 0 0 0 0 0 0 0 0 0 0 0 0 0 0 0 0 0 0 0 0 0 0
5 6 8 10 11 10 11 12 12 9 9 8 7 5 3 1 1 2 1 0 0 0 0 0 0 0 0 0 0 0 0 0 0 0 0 0 0 0 0 0 0 0 0
6 5 8 12 13 11 10 11 12 10 9 8 6 6 5 3 3 3 2 0 0 0 0 0 1 1 1 0 1 1 0 0 0 0 0 0 0 0 0 0 0 0 0
6 5 7 11 12 11 9 9 11 11 9 7 6 7 8 7 5 3 2 1 0 0 0 1 2 2 1 1 1 1 1 1 0 0 0 0 0 0 0 0 0 0 0
4 4 6 7 9 9 10 10 11 10 9 7 6 7 8 8 6 4 3 3 2 1 2 5 5 3 2 1 1 2 2 1 0 0 0 0 0 0 0 0 0 0 0
3 3 4 5 6 7 10 12 11 9 6 6 6 6 6 6 5 5 5 5 4 3 4 6 6 6 6 5 4 5 4 2 1 0 0 0 0 0 0 0 0 0 0
3 3 3 4 5 6 8 9 8 5 3 3 4 3 3 3 4 4 4 4 5 4 4 4 6 8 9 8 6 5 5 3 2 0 0 0 0 0 0 0 0 0 0
4 3 3 3 5 6 6 6 5 2 1 2 2 1 1 1 2 3 3 4 4 4 3 3 4 7 8 6 4 3 3 2 1 0 0 0 0 0 0 0 0 0 0
4 3 4 5 6 6 6 6 4 2 1 2 2 1 0 0 1 2 2 4 4 3 3 3 3 5 5 4 3 2 2 2 1 0 0 0 0 0 0 0 0 0 0
3 3 4 5 5 4 4 5 4 3 2 1 1 1 0 0 0 0 1 3 3 3 4 3 3 3 4 5 5 4 4 3 2 1 1 1 1 0 0 0 0 0 0
3 3 3 3 2 1 1 3 3 3 2 1 1 0 0 0 0 0 0 1 2 3 4 3 2 2 3 3 4 5 4 3 2 2 2 2 2 1 1 1 0 0 0
3 4 4 3 3 1 0 1 2 3 3 3 2 1 0 0 0 0 0 0 1 1 1 1 1 1 1 1 1 2 1 1 1 1 1 1 1 1 1 1 0 0 0
6 6 6 6 5 3 1 0 1 2 3 3 3 2 1 0 0 0 0 0 0 0 0 0 0 0 0 0 0 0 0 0 0 0 0 0 0 0 1 1 0 0 0
6 7 7 6 5 3 1 0 0 1 1 2 2 2 1 0 0 0 0 0 0 0 0 0 0 0 0 0 0 0 0 0 0 0 1 0 0 0 0 0 0 0 0
5 4 4 4 3 3 2 1 0 0 0 1 1 1 1 0 0 0 0 0 0 0 0 0 0 0 0 0 0 0 0 0 0 0 0 0 0 0 0 0 0 0 0
3 3 3 3 3 3 2 1 0 0 0 0 1 1 1 0 0 0 0 0 0 0 0 0 0 0 0 0 0 0 0 0 0 0 0 0 0 0 0 0 0 0 0
Wind_Speed
4 4 3 3 3 3 4 3 3 3 3 3 3 4 3 3 3 3 7 9 7 7 7 7 7 7 8 8 7 7 7 8 8 7 7 7 7 7 7 6 6 6 6
4 4 5 4 3 3 2 2 3 3 3 2 2 3 3 4 4 3 5 9 8 7 7 7 7 7 8 8 8 7 7 8 8 8 7 7 7 7 7 6 6 6 6
5 4 4 5 4 3 3 3 3 3 3 3 3 3 2 3 4 3 4 5 8 9 7 7 7 7 7 8 8 8 8 8 8 8 7 7 7 7 7 7 6 6 6
6 5 4 4 4 4 4 3 3 3 3 2 3 2 2 3 4 4 4 4 4 6 9 9 7 7 7 8 8 8 9 8 8 8 8 8 8 8 7 7 7 7 7
7 6 4 3 5 4 4 4 4 3 3 2 3 3 3 3 4 5 4 5 4 4 5 9 9 8 8 9 9 9 9 9 9 9 9 9 9 8 8 8 8 8 8
8 7 5 5 6 4 4 3 2 2 2 3 3 2 3 3 4 4 5 5 5 6 6 6 7 9 11 9 9 9 9 10 10 10 10 10 10 10 9 9 9 9 9
8 7 5 6 6 5 4 5 4 5 4 3 3 3 4 5 4 4 4 4 5 5 5 5 5 4 7 12 10 9 10 10 10 10 10 10 10 10 10 10 10 10 10
8 8 7 6 6 4 5 5 5 4 3 4 4 3 3 5 5 5 4 5 5 5 5 6 5 5 5 4 7 10 10 10 11 11 10 10 10 10 10 11 11 11 11
9 7 7 7 5 6 6 6 6 6 5 4 4 3 3 2 3 5 5 5 5 4 5 4 6 6 6 4 5 10 10 9 10 11 11 10 10 10 10 11 11 11 11
8 8 7 7 6 6 5 7 7 5 5 5 4 4 4 3 3 2 5 5 6 6 5 4 5 5 6 5 4 4 8 7 8 9 9 10 10 10 10 10 11 11 11
8 8 7 6 6 6 6 6 5 6 5 6 4 4 4 3 5 4 2 3 4 5 4 5 3 3 4 4 4 6 9 7 7 7 7 7 8 9 9 10 10 10 10
6 8 8 7 7 6 6 6 6 7 6 5 5 4 4 4 4 4 3 3 3 3 3 2 3 3 3 4 4 7 6 6 6 6 6 6 6 7 7 7 8 8 9
6 8 8 7 6 6 7 6 6 6 6 6 6 5 4 4 3 3 4 3 2 3 4 3 2 1 2 2 3 5 5 5 5 5 5 5 4 5 5 5 5 5 6
6 7 8 7 8 8 8 6 6 6 5 6 6 5 4 4 4 4 4 3 3 4 4 3 2 1 0 0 3 3 4 4 4 4 4 4 3 3 3 3 2 2 3
5 7 8 8 8 8 7 7 5 6 5 6 6 7 6 3 4 4 4 4 4 4 3 4 3 2 0 2 2 1 2 6 4 3 3 2 2 2 2 2 1 0 1
6 7 8 8 7 7 7 7 6 6 5 5 4 4 4 4 3 3 3 3 4 5 3 1 1 2 2 1 3 2 4 9 6 4 4 3 3 3 3 3 2 2 2
7 7 7 7 7 7 7 7 6 6 7 6 5 5 5 3 2 3 2 3 3 4 3 1 2 3 2 2 2 1 2 2 5 8 7 6 5 5 4 4 4 4 4
6 6 6 6 7 6 6 7 7 6 6 6 6 5 5 4 3 3 2 3 2 3 4 2 1 2 2 2 2 1 1 2 4 9 9 8 7 6 6 6 5 5 5
5 6 6 6 6 6 5 5 5 4 4 3 3 3 3 3 2 1 1 2 2 2 2 2 1 1 1 2 1 1 2 2 1 7 8 8 7 6 5 5 5 6 5
5 5 5 5 5 5 5 5 5 4 3 3 2 2 2 2 1 1 1 1 1 1 1 0 1 1 2 2 2 2 1 1 2 2 2 2 5 5 5 5 5 5 5
6 5 5 5 4 4 4 5 5 6 6 6 7 8 9 11 12 8 4 3 3 2 2 2 2 2 3 3 3 2 2 2 0 2 3 2 1 1 2 4 4 5 5
5 6 6 5 5 3 7 8 6 7 7 8 8 8 9 11 14 16 16 15 11 6 4 3 3 4 4 4 4 4 3 3 3 2 4 5 3 3 3 2 6 4 4
7 7 6 7 7 9 11 11 11 8 9 8 8 7 7 8 9 9 12 14 15 16 11 6 6 5 4 5 5 5 4 5 5 5 5 5 4 4 4 1 6 2 2
7 7 7 9 9 10 12 13 13 11 10 10 9 8 8 8 8 8 9 10 10 10 9 8 7 7 7 6 5 4 5 4 4 2 3 5 5 6 6 4 6 4 2
8 8 8 9 10 10 12 12 11 10 10 11 9 9 8 9 9 8 9 9 9 9 12 14 12 9 9 9 8 5 5 5 5 4 4 6 6 7 7 5 3 7 7
10 9 10 9 10 10 10 10 10 8 10 9 9 10 12 11 9 8 7 8 8 7 6 7 6 5 5 6 6 7 7 6 6 5 5 6 7 8 7 5 5 5 6
Wind_Direction
171 157 159 169 180 154 169 179 165 146 156 159 155 139 134 116 129 143 128 149 162 166 164 163 165 166 163 161 161 161 163 161 158 162 165 165 165 165 162 161 159 158 159
169 174 175 181 182 178 170 179 163 167 182 158 165 144 165 152 141 164 146 152 169 176 176 178 179 178 177 177 175 177 180 177 173 175 174 177 177 175 174 175 173 174 172
174 188 183 189 182 167 166 193 178 182 184 178 165 161 175 170 143 165 170 162 165 175 184 188 187 189 192 192 192 192 192 190 186 184 184 186 188 187 187 187 188 189 189
188 199 195 194 174 190 191 184 204 191 178 187 171 171 163 161 159 172 185 186 172 168 177 188 196 198 203 207 208 205 200 197 193 193 195 198 201 199 199 200 202 203 203
195 205 205 182 193 200 201 212 181 203 184 189 183 174 181 177 174 182 187 189 182 193 178 168 190 202 211 216 217 216 210 204 199 202 205 209 211 210 209 211 214 214 214
200 208 203 193 210 203 202 217 182 199 220 209 222 162 192 181 201 188 202 187 190 199 203 185 187 195 206 217 220 220 216 211 207 209 213 216 218 218 216 219 221 222 223
201 210 217 189 214 211 210 206 207 192 210 201 215 200 197 204 203 197 210 208 197 202 204 203 217 202 189 199 210 218 220 216 213 213 217 220 223 221 220 224 226 227 228
208 206 212 212 206 206 208 213 217 226 207 205 236 231 212 189 203 200 194 207 214 206 208 206 207 209 232 192 181 201 216 219 218 217 217 222 224 224 225 227 229 230 230
210 216 208 219 210 216 203 209 211 220 223 209 234 258 257 228 177 178 202 204 203 215 221 208 213 206 217 214 191 190 203 212 218 221 218 219 224 227 231 232 232 232 234
210 210 214 214 215 222 205 213 208 223 228 225 207 243 286 333 282 186 189 192 197 210 219 220 212 203 214 220 190 166 187 207 218 222 222 221 221 225 228 232 236 237 237
207 210 209 212 213 223 215 227 204 229 227 234 226 215 217 226 252 271 219 188 188 197 194 208 218 213 203 219 212 169 176 201 216 224 225 224 221 221 225 232 238 240 240
205 206 209 210 214 219 210 217 218 218 237 242 250 239 230 232 234 243 237 217 200 172 185 200 220 209 209 214 195 126 165 197 212 219 222 222 219 219 220 227 233 238 241
204 201 206 203 210 213 213 214 215 229 221 221 231 237 242 253 262 259 265 252 226 179 179 192 191 194 221 204 138 135 170 190 202 209 212 210 208 208 210 220 233 241 248
207 197 200 202 208 210 210 206 217 215 216 219 228 239 244 241 250 250 260 265 247 219 192 180 161 147 302 212 93 196 155 153 176 188 189 189 189 193 197 201 213 234 254
204 197 197 202 208 209 209 205 219 219 213 219 220 213 233 229 240 249 257 266 270 266 221 164 187 108 178 84 81 174 108 105 116 126 135 144 155 161 158 149 151 191 279
204 196 200 202 201 202 204 207 212 208 213 218 235 236 237 236 232 235 247 258 273 281 283 124 124 73 23 86 91 96 100 103 85 91 95 94 97 99 96 89 77 53 27
190 192 194 195 197 199 199 201 213 202 211 209 213 212 216 244 232 233 237 252 260 269 269 221 129 95 72 24 70 83 116 121 97 87 81 79 79 78 73 69 61 49 36
184 184 185 189 193 194 193 196 204 203 206 209 213 213 209 200 203 243 244 249 260 279 268 236 170 127 108 92 76 21 59 81 91 94 89 81 78 77 74 70 64 56 45
174 176 180 184 187 183 181 184 186 189 195 197 196 199 206 203 206 213 267 274 278 266 274 235 182 93 96 56 86 83 78 37 83 124 116 104 91 82 77 72 65 55 42
165 168 172 176 175 167 166 168 163 155 140 113 93 87 75 79 84 85 63 12 344 331 327 274 122 101 81 48 6 352 357 33 357 8 39 91 123 127 110 94 73 52 35
155 151 148 151 152 157 159 154 148 137 125 107 88 77 71 70 62 56 55 51 42 37 44 56 59 60 46 27 8 344 340 322 347 354 321 297 216 230 169 146 98 51 28
131 129 131 129 123 113 98 105 119 118 112 108 101 95 88 82 79 73 67 59 52 56 58 59 64 59 42 25 5 339 337 321 310 27 323 308 304 303 306 324 78 61 24
121 116 112 108 99 91 96 100 102 107 103 101 101 100 95 90 91 92 83 76 66 58 54 57 65 49 43 23 358 349 359 337 327 332 321 307 313 310 306 41 116 95 5
115 109 103 100 96 93 96 101 103 102 97 92 90 92 95 90 84 87 89 82 73 61 56 61 66 55 46 25 358 342 330 302 271 267 329 306 321 316 312 298 154 168 235
107 102 100 99 100 97 95 102 107 106 100 93 89 84 90 92 76 83 94 93 89 86 78 78 77 79 68 44 14 354 353 333 331 340 6 326 321 317 303 288 187 186 228
109 107 102 99 101 100 91 95 104 108 106 101 92 84 75 78 68 67 92 95 91 85 87 94 95 101 74 65 41 17 0 345 336 333 18 335 323 325 309 307 317 301 281